Flag for Canada Weather past 2 weeks in Glace Bay, Nova Scotia, Canada

Now
50 °F

Sprinkles. Scattered clouds.


Feels Like: 45 °F
Forecast: 48 / 54 °F
Wind: 15 mph from West

Location: Sydney

Current Time: Sep 19, 2014 at 3:49:45 PM

Latest Report: Sep 19, 2014 at 3:00 PM


Visibility: 15 mi

Pressure: 30.07 "Hg

Humidity: 71%

Dew point: 41 °F

Location of Glace BayLocation

Historic Weather in Glace Bay — Graph

°F

Glace Bay temperature yesterday

Maximum temperature yesterday: 66 °F (at 3:00 PM)
Minimum temperature yesterday: 39 °F (at 6:00 AM)
Average temperature yesterday: 55 °F

Past Weeks' High & Low Weather Summary

 TemperatureHumidityPressure
High81 °F (Sep 6, 1:00 PM)100% (Sep 6, 12:00 AM)30.51 "Hg (Sep 6, 12:00 AM)
Low39 °F (Sep 9, 3:00 AM)34% (Sep 8, 4:00 PM)29.70 "Hg (Sep 7, 3:00 AM)
Average59 °F80%30.04 "Hg
* Reported Sep 4 2:00 PM — Sep 19 2:00 PM, Glace Bay, Weather by CustomWeather, © 2014

Note: Actual official high and low records may vary slightly from our data, if they occured in-between our weather recording intervals... More about our weather records

Advertising

Glace Bay weather history for previous 24 hours

 ConditionsComfort  
Time TempWeatherWind HumidityBarometerVisibility
2:00 PM
Sep 19
54 °FSprinkles. Scattered clouds.22 mph44%30.05 "Hg15 mi
1:00 PM54 °FSprinkles. Scattered clouds.18 mph41%30.05 "Hg15 mi
12:00 PM52 °FScattered clouds.14 mph50%30.05 "Hg15 mi
11:00 AM52 °FPartly sunny.16 mph47%30.04 "Hg15 mi
10:00 AM50 °FPartly sunny.18 mph50%30.04 "Hg15 mi
9:00 AM50 °FBroken clouds.16 mph67%30.02 "Hg15 mi
8:00 AM46 °FScattered clouds.6 mph87%30.01 "Hg15 mi
7:00 AM43 °FPassing clouds.8 mph93%29.99 "Hg15 mi
6:00 AM46 °FPartly cloudy.8 mph87%29.97 "Hg15 mi
5:00 AM48 °FPassing clouds.7 mph87%29.94 "Hg15 mi
4:00 AM48 °FOvercast.9 mph87%29.93 "Hg15 mi
3:00 AM48 °FOvercast.8 mph87%29.92 "Hg15 mi
2:00 AM50 °FSprinkles. Overcast.8 mph88%29.92 "Hg15 mi
1:00 AM52 °FSprinkles. Overcast.12 mph88%29.92 "Hg15 mi
12:00 AM52 °FSprinkles. Overcast.13 mph94%29.91 "Hg10 mi
11:00 PM
Sep 18
55 °FSprinkles. Low clouds.17 mph94%29.90 "Hg10 mi
10:53 PM55 °FSprinkles. Low clouds.14 mph94%29.90 "Hg10 mi
10:00 PM54 °FPassing clouds.6 mph88%29.88 "Hg15 mi
9:00 PM55 °FPassing clouds.9 mph77%29.87 "Hg15 mi
8:00 PM55 °FPassing clouds.6 mph72%29.87 "Hg15 mi
7:00 PM59 °FPartly sunny.7 mph63%29.87 "Hg15 mi
6:00 PM63 °FPartly sunny.10 mph52%29.87 "Hg15 mi
5:00 PM63 °FBroken clouds.9 mph64%29.87 "Hg15 mi
4:00 PM64 °FPartly sunny.13 mph52%29.88 "Hg15 mi
3:00 PM66 °FPartly sunny.14 mph60%29.88 "Hg15 mi
Weather by CustomWeather, © 2014

See weather overviewHow to use our weather pages